Track EGS (AJISAI) now! 10-day predictions EGS (AJISAI) is classified as:
1 16908U 86061A 24256.77945014 -.00000046 00000-0 36395-3 0 9991 2 16908 50.0111 322.7760 0011217 345.4144 176.9016 12.44507429400741